EW4271 Weather Reports


time (UTC)temp
C
wind
direction
speed
KPH
gust
KPH
rain 1hr
cm
rain 24hr
cm
rain mn
cm
humidity
%
barometer
mb
20260509033126 17 5 4.8 6.4 0.00 0.00 0.00 23 1019.4
20260509032639 17 313 0.0 0.0 0.00 0.00 0.00 22 1019.4
20260509032134 17 313 0.0 0.0 0.00 0.00 0.00 23 1019.3
20260509031647 18 313 0.0 0.0 0.00 0.00 0.00 22 1019.3
20260509031139 18 313 0.0 1.6 0.00 0.00 0.00 22 1019.2
20260509030633 18 293 0.0 6.4 0.00 0.00 0.00 21 1019.2
20260509030131 18 328 3.2 6.4 0.00 0.00 0.00 21 1019.2
20260509025624 18 335 1.6 6.4 0.00 0.00 0.00 21 1019.1
20260509025137 18 343 1.6 4.8 0.00 0.00 0.00 21 1019.0
20260509024632 18 326 1.6 9.7 0.00 0.00 0.00 20 1018.9
20260509024125 19 263 3.2 9.7 0.00 0.00 0.00 20 1018.9
20260509023637 19 315 3.2 12.9 0.00 0.00 0.00 20 1018.9
20260509023151 19 51 3.2 12.9 0.00 0.00 0.00 20 1018.8
20260509022625 19 350 4.8 12.9 0.00 0.00 0.00 19 1018.7
20260509022123 19 78 3.2 12.9 0.00 0.00 0.00 20 1018.6
20260509021637 19 29 4.8 11.3 0.00 0.00 0.00 19 1018.5
20260509021132 19 14 3.2 6.4 0.00 0.00 0.00 19 1018.5
20260509020626 20 327 1.6 4.8 0.00 0.00 0.00 20 1018.4
20260509020139 20 15 0.0 4.8 0.00 0.00 0.00 19 1018.3
20260509015634 20 333 3.2 4.8 0.00 0.00 0.00 19 1018.2
20260509015126 20 21 1.6 6.4 0.00 0.00 0.00 18 1018.1
20260509014641 20 341 1.6 11.3 0.00 0.00 0.00 18 1018.1
20260509014138 20 355 4.8 11.3 0.00 0.00 0.00 18 1018.0
20260509013633 20 96 1.6 3.2 0.00 0.00 0.00 17 1018.0
20260509013127 21 265 0.0 3.2 0.00 0.00 0.00 17 1017.9
20260509012641 21 265 0.0 4.8 0.00 0.00 0.00 16 1017.7
20260509012154 21 265 0.0 6.4 0.00 0.00 0.00 16 1017.7
20260509011626 21 101 1.6 6.4 0.00 0.00 0.00 16 1017.6
20260509011140 21 94 1.6 6.4 0.00 0.00 0.00 16 1017.6
20260509010634 21 33 1.6 6.4 0.00 0.00 0.00 16 1017.7
20260509010133 21 19 3.2 6.4 0.00 0.00 0.00 15 1017.6
20260509005627 22 351 3.2 4.8 0.00 0.00 0.00 15 1017.6
20260509005141 22 246 1.6 8.0 0.00 0.00 0.00 15 1017.6
20260509004634 22 320 4.8 8.0 0.00 0.00 0.00 15 1017.6
20260509004146 22 78 3.2 16.1 0.00 0.00 0.00 15 1017.5
20260509003640 22 60 4.8 16.1 0.00 0.00 0.00 14 1017.5
20260509003134 22 329 3.2 9.7 0.00 0.00 0.00 15 1017.6
20260509002648 22 323 1.6 12.9 0.00 0.00 0.00 15 1017.5
20260509002141 22 41 4.8 12.9 0.00 0.00 0.00 15 1017.6
20260509001655 23 42 3.2 8.0 0.00 0.00 0.00 15 1017.6
20260509001131 23 311 3.2 9.7 0.00 0.00 0.00 15 1017.6
20260509000625 23 17 3.2 9.7 0.00 0.00 0.00 15 1017.5
20260509000200 23 324 3.2 12.9 0.00 0.00 0.00 15 1017.4
20260508235653 23 236 3.2 12.9 0.00 0.00 0.00 14 1017.4
20260508235126 23 240 3.2 12.9 0.00 0.00 0.00 14 1017.4
20260508234700 23 328 4.8 12.9 0.00 0.00 0.00 15 1017.5
20260508234133 23 229 4.8 8.0 0.00 0.00 0.00 14 1017.3
20260508233627 23 202 4.8 11.3 0.00 0.00 0.00 15 1017.5
20260508233141 23 258 3.2 11.3 0.00 0.00 0.00 16 1017.3
20260508232635 23 203 4.8 11.3 0.00 0.00 0.00 16 1017.4
20260508232132 23 115 4.8 11.3 0.00 0.00 0.00 16 1017.3
20260508231627 23 154 4.8 11.3 0.00 0.00 0.00 16 1017.3
20260508231141 23 252 1.6 4.8 0.00 0.00 0.00 16 1017.2
20260508230655 23 122 1.6 4.8 0.00 0.00 0.00 16 1017.2
20260508230128 23 158 0.0 6.4 0.00 0.00 0.00 16 1017.2
20260508225640 23 142 3.2 6.4 0.00 0.00 0.00 16 1017.2
20260508225134 23 146 3.2 6.4 0.00 0.00 0.00 17 1017.2
20260508224627 23 340 1.6 8.0 0.00 0.00 0.00 17 1017.3
20260508224125 23 150 3.2 8.0 0.00 0.00 0.00 17 1017.4
20260508223640 22 127 1.6 8.0 0.00 0.00 0.00 17 1017.4
20260508223153 22 341 3.2 8.0 0.00 0.00 0.00 17 1017.4
20260508222625 22 149 3.2 4.8 0.00 0.00 0.00 17 1017.6
20260508222139 22 86 0.0 6.4 0.00 0.00 0.00 17 1017.6
20260508221653 22 86 3.2 6.4 0.00 0.00 0.00 17 1017.6
20260508221125 22 128 1.6 11.3 0.00 0.00 0.00 17 1017.7
20260508220639 22 97 4.8 11.3 0.00 0.00 0.00 16 1017.6
20260508220151 23 161 3.2 11.3 0.00 0.00 0.00 16 1017.7
20260508215645 23 120 3.2 19.3 0.00 0.00 0.00 16 1017.8
20260508215157 23 157 1.6 14.5 0.00 0.00 0.00 17 1017.8
20260508214649 23 150 4.8 9.7 0.00 0.00 0.00 17 1017.8
20260508214125 23 152 1.6 8.0 0.00 0.00 0.00 16 1017.8
20260508213636 23 87 1.6 11.3 0.00 0.00 0.00 17 1017.8
20260508213131 23 86 3.2 14.5 0.00 0.00 0.00 17 1017.8
20260508212644 23 74 3.2 14.5 0.00 0.00 0.00 16 1017.8
20260508212137 23 340 1.6 11.3 0.00 0.00 0.00 17 1018.0
20260508211630 23 327 3.2 6.4 0.00 0.00 0.00 16 1017.9
20260508211124 23 5 3.2 9.7 0.00 0.00 0.00 16 1018.0
20260508210657 23 247 3.2 9.7 0.00 0.00 0.00 16 1018.1
20260508210130 24 318 3.2 11.3 0.00 0.00 0.00 16 1018.2
20260508205627 24 355 3.2 11.3 0.00 0.00 0.00 17 1018.2
20260508205141 23 59 3.2 14.5 0.00 0.00 0.00 17 1018.2
20260508204634 23 63 6.4 14.5 0.00 0.00 0.00 16 1018.2
20260508204148 23 152 4.8 11.3 0.00 0.00 0.00 16 1018.3
20260508203641 24 261 3.2 11.3 0.00 0.00 0.00 16 1018.5
20260508203134 23 101 3.2 8.0 0.00 0.00 0.00 16 1018.5
20260508202627 23 154 4.8 16.1 0.00 0.00 0.00 17 1018.5
20260508202140 23 294 8.0 16.1 0.00 0.00 0.00 17 1018.7
20260508201634 23 107 3.2 16.1 0.00 0.00 0.00 17 1018.7
20260508201132 23 149 6.4 16.1 0.00 0.00 0.00 16 1018.8
20260508200625 23 130 6.4 16.1 0.00 0.00 0.00 16 1018.8
20260508200159 22 157 3.2 12.9 0.00 0.00 0.00 17 1018.8
20260508195631 23 31 3.2 16.1 0.00 0.00 0.00 17 1019.0
20260508195125 22 155 4.8 16.1 0.00 0.00 0.00 17 1019.0
20260508194638 22 131 8.0 14.5 0.00 0.00 0.00 17 1019.0
20260508194133 22 159 3.2 17.7 0.00 0.00 0.00 18 1019.1
20260508193626 22 171 3.2 11.3 0.00 0.00 0.00 17 1019.2
20260508193143 22 254 4.8 12.9 0.00 0.00 0.00 17 1019.2
20260508192657 22 161 3.2 12.9 0.00 0.00 0.00 17 1019.1
20260508192128 22 135 4.8 14.5 0.00 0.00 0.00 17 1019.2
20260508191643 22 142 4.8 14.5 0.00 0.00 0.00 17 1019.2
20260508191136 22 188 3.2 9.7 0.00 0.00 0.00 18 1019.4
20260508190629 22 46 1.6 12.9 0.00 0.00 0.00 18 1019.3
20260508190142 22 112 3.2 11.3 0.00 0.00 0.00 18 1019.4
20260508185636 22 83 3.2 11.3 0.00 0.00 0.00 18 1019.5
20260508185133 22 53 4.8 12.9 0.00 0.00 0.00 19 1019.4
20260508184627 21 203 4.8 14.5 0.00 0.00 0.00 18 1019.7
20260508184140 21 119 4.8 14.5 0.00 0.00 0.00 19 1019.7
20260508183634 21 167 3.2 8.0 0.00 0.00 0.00 17 1019.7
20260508183126 21 262 4.8 14.5 0.00 0.00 0.00 18 1019.8
20260508182640 21 192 6.4 16.1 0.00 0.00 0.00 18 1019.9
20260508182154 21 90 6.4 16.1 0.00 0.00 0.00 18 1019.8
20260508181625 21 68 6.4 11.3 0.00 0.00 0.00 19 1019.9
20260508181123 21 171 6.4 11.3 0.00 0.00 0.00 19 1020.0
20260508180656 21 138 3.2 9.7 0.00 0.00 0.00 18 1020.1
20260508180128 21 178 4.8 17.7 0.00 0.00 0.00 19 1020.2
20260508175641 21 140 6.4 17.7 0.00 0.00 0.00 19 1020.2
20260508175135 21 150 4.8 14.5 0.00 0.00 0.00 19 1020.3
20260508174628 20 134 3.2 14.5 0.00 0.00 0.00 20 1020.3
20260508174143 20 140 4.8 17.7 0.00 0.00 0.00 18 1020.3
20260508173637 20 148 8.0 12.9 0.00 0.00 0.00 19 1020.4
20260508173131 20 20 3.2 6.4 0.00 0.00 0.00 20 1020.6
20260508172629 20 146 4.8 17.7 0.00 0.00 0.00 20 1020.6
20260508172203 20 138 9.7 17.7 0.00 0.00 0.00 19 1020.6
20260508171636 20 163 8.0 16.1 0.00 0.00 0.00 21 1020.7
20260508171130 18 175 3.2 11.3 0.00 0.00 0.00 21 1020.8
20260508170624 18 113 3.2 17.7 0.00 0.00 0.00 21 1020.8
20260508170139 18 141 6.4 17.7 0.00 0.00 0.00 21 1020.9
20260508165633 18 32 4.8 9.7 0.00 0.00 0.00 22 1020.8
20260508165127 17 51 6.4 8.0 0.00 0.00 0.00 22 1020.8
20260508164625 18 69 1.6 12.9 0.00 0.00 0.00 23 1021.0
20260508164139 18 248 3.2 12.9 0.00 0.00 0.00 21 1021.0
20260508163653 18 36 3.2 11.3 0.00 0.00 0.00 21 1021.1
20260508163145 18 150 3.2 11.3 0.00 0.00 0.00 22 1021.0
20260508162637 18 108 3.2 11.3 0.00 0.00 0.00 22 1021.1
20260508162150 17 157 4.8 9.7 0.00 0.00 0.00 24 1021.1
20260508161641 17 147 4.8 11.3 0.00 0.00 0.00 23 1021.1
20260508161135 17 43 3.2 6.4 0.00 0.00 0.00 23 1021.1
20260508160629 17 55 4.8 8.0 0.00 0.00 0.00 23 1021.2
20260508160203 17 144 3.2 11.3 0.00 0.00 0.00 23 1021.2
20260508155636 17 143 3.2 9.7 0.00 0.00 0.00 25 1021.2
20260508155154 16 65 3.2 8.0 0.00 0.00 0.00 25 1021.2
20260508154626 16 178 3.2 9.7 0.00 0.00 0.00 26 1021.3
20260508154140 15 46 6.4 9.7 0.00 0.00 0.00 25 1021.3
20260508153632 15 53 6.4 9.7 0.00 0.00 0.00 25 1021.3
20260508153125 15 154 4.8 12.9 0.00 0.00 0.00 25 1021.3
20260508152659 15 49 6.4 9.7 0.00 0.00 0.00 24 1021.4
20260508152132 15 91 3.2 8.0 0.00 0.00 0.00 24 1021.3
20260508151645 15 162 3.2 8.0 0.00 0.00 0.00 25 1021.3
20260508151138 15 171 3.2 6.4 0.00 0.00 0.00 25 1021.4
20260508150635 15 49 1.6 6.4 0.00 0.00 0.00 25 1021.4
20260508150129 15 35 3.2 6.4 0.00 0.00 0.00 25 1021.5
20260508145642 15 59 1.6 8.0 0.00 0.00 0.00 27 1021.4
20260508145156 15 169 4.8 8.0 0.00 0.00 0.00 25 1021.5
20260508144628 14 142 3.2 4.8 0.00 0.00 0.00 26 1021.4
20260508144201 13 113 1.6 8.0 0.00 0.00 0.00 27 1021.5
20260508143653 13 156 3.2 8.0 0.00 0.00 0.00 27 1021.4
20260508143126 12 136 1.6 6.4 0.00 0.00 0.00 28 1021.5
20260508142639 12 59 1.6 4.8 0.00 0.00 0.00 29 1021.5
20260508142133 11 79 1.6 4.8 0.00 0.00 0.00 31 1021.4
20260508141630 11 38 3.2 4.8 0.00 0.00 0.00 31 1021.4
20260508141144 10 144 0.0 3.2 0.00 0.00 0.00 34 1021.3
20260508140636 9 144 0.0 3.2 0.00 0.00 0.00 41 1021.3
20260508140150 8 144 0.0 1.6 0.00 0.00 0.00 42 1021.3
20260508135642 8 144 0.0 0.0 0.00 0.00 0.00 45 1021.3
20260508135155 7 144 0.0 0.0 0.00 0.00 0.00 45 1021.3
20260508134626 7 144 0.0 0.0 0.00 0.00 0.00 43 1021.3
20260508134141 7 144 0.0 0.0 0.00 0.00 0.00 45 1021.3
20260508133634 7 144 0.0 0.0 0.00 0.00 0.00 41 1021.2
20260508133132 6 144 0.0 0.0 0.00 0.00 0.00 43 1021.2
20260508132625 6 144 0.0 0.0 0.00 0.00 0.00 43 1021.1
20260508132138 5 144 0.0 0.0 0.00 0.00 0.00 42 1021.1
20260508131632 5 144 0.0 0.0 0.00 0.00 0.00 46 1020.9
20260508131125 5 144 0.0 0.0 0.00 0.00 0.00 45 1020.8
20260508130640 4 144 0.0 0.0 0.00 0.00 0.00 47 1020.8
20260508130133 4 144 0.0 0.0 0.00 0.00 0.00 46 1020.7
20260508125647 4 144 0.0 0.0 0.00 0.00 0.00 46 1020.6
20260508125124 4 144 0.0 0.0 0.00 0.00 0.00 46 1020.6
20260508124637 4 126 0.0 0.0 0.00 0.00 0.00 45 1020.5
20260508124129 4 218 0.0 0.0 0.00 0.00 0.00 44 1020.4
20260508123623 4 218 0.0 0.0 0.00 0.00 0.00 44 1020.3
20260508123137 4 218 0.0 4.8 0.00 0.00 0.00 44 1020.3
20260508122630 4 218 0.0 4.8 0.00 0.00 0.00 44 1020.2
20260508122123 4 218 1.6 4.8 0.00 0.00 0.00 42 1020.1
20260508121638 4 91 0.0 3.2 0.00 0.00 0.00 43 1020.1
20260508121150 4 91 0.0 3.2 0.00 0.00 0.00 41 1020.1
20260508120627 5 91 0.0 0.0 0.00 0.00 0.00 40 1020.0
20260508120141 5 91 0.0 0.0 0.00 0.00 0.00 40 1020.1
20260508115654 5 91 0.0 0.0 0.00 0.00 0.00 39 1020.0
20260508115147 5 91 0.0 0.0 0.00 0.00 0.00 39 1020.1
20260508114639 5 91 0.0 0.0 0.00 0.00 0.00 40 1020.1
20260508114132 5 91 0.0 0.0 0.00 0.00 0.00 40 1020.1
20260508113626 6 91 0.0 0.0 0.00 0.00 0.00 40 1020.1
20260508113140 6 91 0.0 3.2 0.00 0.00 0.00 37 1019.9
20260508112633 6 91 1.6 3.2 0.00 0.00 0.00 38 1020.0
20260508112130 6 91 0.0 4.8 0.00 0.00 0.00 39 1019.9
20260508111624 6 91 1.6 4.8 0.00 0.00 0.00 35 1019.9
20260508111137 6 223 3.2 4.8 0.00 0.00 0.00 38 1019.9
20260508110631 6 223 1.6 4.8 0.00 0.00 0.00 37 1019.7
20260508110204 6 201 0.0 0.0 0.00 0.00 0.00 40 1019.8
20260508105636 6 87 0.0 0.0 0.00 0.00 0.00 40 1019.9
20260508105128 6 87 0.0 0.0 0.00 0.00 0.00 36 1019.8
20260508104643 6 32 0.0 0.0 0.00 0.00 0.00 38 1019.8
20260508104136 6 286 0.0 0.0 0.00 0.00 0.00 38 1019.6